Regional Weather Roundup
Issued by NWS

Home | Current Version | Previous Version | Graphics & Text | Print | Product List | Glossary On
Versions: 1 2 3 4 5 6 7 8 9 10 11 12 13 14 15 16 17 18 19 20 21 22 23 24 25 26 27 28 29 30 31 32 33 34 35 36 37 38 39 40 41 42 43 44 45 46 47 48 49 50
000
ASUS43 KOAX 230102
RWRNE

WEATHER ROUNDUP FOR NEBRASKA
NATIONAL WEATHER SERVICE OMAHA NE
800 PM CDT SUN APR 22 2018

NOTES: SATELLITE DATA IS BEING USED TO AUGMENT CLOUD COVER ABOVE
       12000 FEET.
       "FAIR" INDICATES FEW OR NO CLOUDS BELOW 12,000 FEET WITH NO
       SIGNIFICANT WEATHER AND/OR OBSTRUCTIONS TO VISIBILITY.


NEZ001>004-019>022-054>056-230200-
NEBRASKA PANHANDLE

CITY           SKY/WX    TMP DP  RH WIND       PRES   REMARKS
SCOTTSBLUFF    CLEAR     60  39  45 SE10      30.08S
ALLIANCE       CLEAR     55  41  59 S18       30.09S
CHADRON        CLEAR     63  43  48 SE14      30.05S
GORDON         FAIR      60  39  46 S6        30.09R
KIMBALL        CLEAR     56  38  52 SE10      30.11S
SIDNEY         CLEAR     53  32  44 SE12      30.12S
$$

NEZ057>060-069>072-079>082-230200-
SOUTHWEST NEBRASKA

CITY           SKY/WX    TMP DP  RH WIND       PRES   REMARKS
NORTH PLATTE   PTCLDY    55  40  56 S3        30.16S
IMPERIAL       CLEAR     53  36  52 SE6       30.15S
LEXINGTON      PTCLDY    58  38  47 CALM      30.16S
MCCOOK         CLOUDY    57  40  52 SE10      30.14F
OGALLALA       CLEAR     54  38  54 SE7       30.15S
$$

NEZ005>010-023>029-035>040-094-230200-
NORTH CENTRAL NEBRASKA

CITY           SKY/WX    TMP DP  RH WIND       PRES   REMARKS
VALENTINE      PTCLDY    60  37  42 S13       30.13R
AINSWORTH      PTCLDY    55  40  56 S6        30.15S
BROKEN BOW     CLEAR     54  39  57 SW3       30.15S
O`NEILL        CLEAR     61  36  39 S3        30.16S
ORD            CLEAR     58  37  45 S6        30.14S
THEDFORD       CLEAR     56  38  49 S9        30.15S
$$

NEZ041-046>049-061>064-073>077-083>087-230200-
SOUTH CENTRAL NEBRASKA

CITY           SKY/WX    TMP DP  RH WIND       PRES   REMARKS
GRAND ISLAND   MOCLDY    60  36  40 SE9       30.15R
AURORA         PTCLDY    59  34  39 SE7       30.15R
HASTINGS       PTCLDY    59  37  44 SE9       30.15R
HEBRON         CLOUDY    60  39  45 CALM      30.13F
HOLDREGE       CLOUDY    58  42  55 CALM      30.14F
KEARNEY        CLOUDY    60  40  47 CALM      30.15S
YORK             N/A     63  36  36 CALM      30.15S
$$

NEZ011>018-030>034-042>045-230200-
NORTHEAST NEBRASKA

CITY           SKY/WX    TMP DP  RH WIND       PRES   REMARKS
NORFOLK        CLEAR     62  33  33 E3        30.14S
ALBION         CLEAR     60  36  39 SE3       30.15R
BLAIR          MOCLDY    63  32  31 E7        30.14R
COLUMBUS       CLOUDY    64  34  32 E6        30.15S
FREMONT        MOCLDY    65  33  30 NE3       30.15S
TEKAMAH        PTCLDY    61  31  32 NE8       30.15R
WAYNE          CLEAR     60  31  34 E8        30.15S
$$

NEZ050>053-065>068-078-088>093-230200-
SOUTHEAST NEBRASKA

CITY           SKY/WX    TMP DP  RH WIND       PRES   REMARKS
LINCOLN        CLOUDY    63  34  33 E7        30.14S
OMAHA EPPLEY   MOCLDY    65  31  28 E8        30.14R
BEATRICE       CLOUDY    65  37  36 NE8       30.12S
FALLS CITY     CLEAR     64  37  36 NE6       30.09S
NEBRASKA CITY  PTCLDY    64  36  34 E7        30.12R
PLATTSMOUTH    CLOUDY    64  32  30 NE8       30.13S
$$

NEZ044-045-051>053-067-230200-
OMAHA AREA

CITY           SKY/WX    TMP DP  RH WIND       PRES   REMARKS
OMAHA EPPLEY   MOCLDY    65  31  28 E8        30.14R
BLAIR          MOCLDY    63  32  31 E7        30.14R
FREMONT        MOCLDY    65  33  30 NE3       30.15S
MILLARD        CLOUDY    67  33  28 E7        30.14R
OFFUTT AFB     CLOUDY    62  33  33 NE8       30.13R
PLATTSMOUTH    CLOUDY    64  32  30 NE8       30.13S
WAHOO          CLOUDY    63  29  28 E5        30.14S
$$



USA.gov is the U.S. government's official web portal to all federal, state and local government web resources and services.